User: anonymous   Login
Location: Sternwarte_Laufen
(47.9344°N, 12.9346°E)
Time: 04:40:53
(UTC+02:00)
Language:

ISS - Orbit

View from above orbital plane
View from above orbital plane
View from above satellite
View from above satellite

Ground track
Ground track

The orbit data is extracted from the following two-line orbital elements,

1 25544U 98067A   17209.51048344  .00016717  00000-0  10270-3 0  9027
2 25544  51.6367 192.3365 0006212  77.3792 282.8055 15.54202531 28171
Epoch (UTC): 28 July 2017 12:15:05
Eccentricity: 0.0006212
inclination: 51.6367°
perigee height: 400 km
apogee height: 408 km
right ascension of ascending node: 192.3365°
argument of perigee: 77.3792°
revolutions per day: 15.54202531
mean anomaly at epoch: 282.8055°
orbit number at epoch: 2817

The dashed part of the orbit path shows where the satellite is in the earth's shadow,  

DLR